Location: Newark
(46.9000°N, 28.3500°E)
Time: 02:06:36
(UTC+00:00)

Explorer 7 - Pass Details

Date: 28 August 2019
Orbit: 485 x 680 km, 50.3° (Epoch: 17 October)

Event Time Altitude Azimuth Distance (km) Brightness Sun altitude
Rises 11:41:12 0° 291° (WNW) 2,915 10.7 47.9°
Reaches altitude 10° 11:43:46 10° 281° (W) 1,970 10.0 47.6°
Maximum altitude 11:47:43 30° 220° (SW) 1,051 10.1 47.2°
Drops below altitude 10° 11:51:27 10° 158° (SSE) 1,850 9.9 46.8°
Sets 11:53:48 0° 147° (SSE) 2,706 10.5 46.6°
